sat.trackr.live / text

‹ back to catalog

STARLINK-32682

NORAD 62196 · 2024-229E

PAYLOAD ACTIVE UNKNOWN

§ Identity

Operator
Country
US
Launch date
2024-12-04
Launch site
AFETR
Launch vehicle
Mass (kg)
RCS (m²)

Purposes: comms

External: N2YO · Heavens-Above · Gunter

§ Orbital elements

Epoch: 2026-09-21T13:59:17.110752Z

Period
94.27 min
Inclination
43.0036°
Eccentricity
0.0001412
Mean motion
15.27606772 rev/d
Perigee alt
482.0 km
Apogee alt
483.9 km
Semi-major
6,861.1 km
B*
6.0215e-4
RAAN
211.7419°
Arg perigee
257.5653°
Mean anomaly
102.5040°
Rev number
10,089

§ Raw data

STARLINK-326821 62196U 24229E   26264.58283693  .00016358  00000+0  60215-3 0  99962 62196  43.0036 211.7419 0001412 257.5653 102.5040 15.27606772100891

JSON: /api/v1/satellites/62196 · /tle

For live sub-satellite position, see the globe view (requires WebGL).

§ Visibility from observer

Set your observer location to see the next 7 days of passes ≥ 10°. The values pass through the URL so the page stays shareable.

No JS? Fill the form by hand. The geolocation button needs JavaScript.